Terug naar catalogus

FENGYUN 1C DEB

ActiefSSO
NORAD 31902·DEBRIS·🇨🇳 China

Gelanceerd May 10, 1999 vanaf Taiyuan Satellite Launch Center

Loading…

Volgende Passages (komende 24 uur)

TLE

VersSource: Space-Track

Epoch: Sep 14, 2026, 09:52 UTC

1 31902U 99025CLD 26257.41169811  .00000510  00000-0  20502-3 0  9991
2 31902  98.5370 233.8695 0180733  65.9795  84.4772 14.23667157687137

Volg FENGYUN 1C DEB in realtime met AllMySat

Download on the App Store